EW4650 Weather Reports


Display with metric or nautical units.
time (UTC)temp
F
wind
direction
speed
MPH
gust
MPH
rain 1hr
in
rain 24hr
in
rain mn
in
humidity
%
barometer
mb
20260510163554 81 216 6.0 16.0 0.00 0.00 0.00 74 1009.9
20260510163053 81 173 11.0 16.0 0.00 0.00 0.00 76 1009.9
20260510162552 80 196 9.0 16.0 0.00 0.00 0.00 76 1010.0
20260510162050 80 221 9.0 16.0 0.00 0.00 0.00 77 1010.0
20260510161550 80 191 11.0 16.0 0.00 0.00 0.00 77 1010.0
20260510161050 80 196 12.0 18.0 0.00 0.00 0.00 77 1010.0
20260510160548 79 211 10.0 18.0 0.00 0.00 0.00 79 1010.0
20260510160049 79 205 11.0 16.0 0.00 0.00 0.00 78 1010.0
20260510155548 79 219 8.0 16.0 0.00 0.00 0.00 80 1010.0
20260510155046 79 249 10.0 18.0 0.00 0.00 0.00 79 1009.9
20260510154553 79 213 9.0 18.0 0.00 0.00 0.00 80 1010.1
20260510154044 79 221 6.0 16.0 0.00 0.00 0.00 80 1010.0
20260510153549 78 255 8.0 16.0 0.00 0.00 0.00 80 1010.0
20260510153042 78 165 7.0 14.0 0.00 0.00 0.00 80 1010.0
20260510152542 78 211 9.0 14.0 0.00 0.00 0.00 81 1010.0
20260510152040 77 221 7.0 12.0 0.00 0.00 0.00 81 1009.9
20260510151542 77 233 5.0 12.0 0.00 0.00 0.00 81 1009.9
20260510151039 77 178 8.0 14.0 0.00 0.00 0.00 83 1009.8
20260510150538 76 203 6.0 11.0 0.00 0.00 0.00 83 1009.9
20260510150047 76 209 7.0 11.0 0.00 0.00 0.00 83 1009.9
20260510145534 75 196 5.0 10.0 0.00 0.00 0.00 84 1010.0
20260510145035 75 217 7.0 11.0 0.00 0.00 0.00 84 1010.0
20260510144536 75 232 7.0 12.0 0.00 0.00 0.00 84 1010.0
20260510144032 74 188 5.0 12.0 0.00 0.00 0.00 84 1010.1
20260510143530 74 225 6.0 12.0 0.00 0.00 0.00 85 1010.1
20260510143029 74 235 6.0 11.0 0.00 0.00 0.00 86 1010.0
20260510142528 73 234 6.0 11.0 0.00 0.00 0.00 86 1010.0
20260510142029 73 213 7.0 12.0 0.00 0.00 0.00 86 1009.9
20260510141528 72 192 7.0 12.0 0.00 0.00 0.00 87 1009.9
20260510141028 72 232 6.0 12.0 0.00 0.00 0.00 88 1009.9
20260510140526 72 223 8.0 12.0 0.00 0.00 0.00 88 1009.8
20260510140026 71 221 9.0 12.0 0.00 0.00 0.00 89 1009.7
20260510135526 71 240 7.0 13.0 0.00 0.00 0.00 89 1009.7
20260510135028 71 213 7.0 13.0 0.00 0.00 0.00 90 1009.8
20260510134525 70 208 9.0 15.0 0.00 0.00 0.00 91 1009.8
20260510134024 70 199 8.0 13.0 0.00 0.00 0.00 91 1009.7
20260510133524 70 203 8.0 12.0 0.00 0.00 0.00 92 1009.7
20260510133024 69 210 5.0 12.0 0.00 0.00 0.00 92 1009.8
20260510132523 69 207 6.0 10.0 0.00 0.00 0.00 93 1009.7
20260510132023 69 218 6.0 10.0 0.00 0.00 0.00 93 1009.7
20260510131523 68 209 6.0 10.0 0.00 0.00 0.00 94 1009.7
20260510131123 68 234 4.0 8.0 0.00 0.00 0.00 94 1009.7
20260510130528 68 215 4.0 6.0 0.00 0.00 0.00 95 1009.7
20260510130022 68 221 4.0 8.0 0.00 0.00 0.00 95 1009.6
20260510125522 67 241 4.0 7.0 0.00 0.00 0.00 95 1009.4
20260510125022 67 221 4.0 6.0 0.00 0.00 0.00 95 1009.3
20260510124527 67 212 3.0 5.0 0.00 0.00 0.00 96 1009.4
20260510124023 67 180 3.0 6.0 0.00 0.00 0.00 96 1009.4
20260510123521 67 200 3.0 8.0 0.00 0.00 0.00 96 1009.4
20260510123021 67 209 5.0 8.0 0.00 0.00 0.00 96 1009.4
20260510122520 66 190 4.0 7.0 0.00 0.00 0.00 96 1009.5
20260510122021 66 208 3.0 7.0 0.00 0.00 0.00 96 1009.5
20260510121519 66 209 2.0 7.0 0.00 0.00 0.00 96 1009.4
20260510121019 66 196 3.0 7.0 0.00 0.00 0.00 96 1009.3
20260510120520 66 228 3.0 7.0 0.00 0.00 0.00 96 1009.2
20260510120021 66 223 4.0 8.0 0.00 0.00 0.00 95 1009.2
20260510115519 66 218 5.0 8.0 0.00 0.00 0.00 95 1009.0
20260510115018 67 219 4.0 7.0 0.00 0.00 0.00 95 1008.9
20260510114524 67 220 5.0 8.0 0.00 0.00 0.00 95 1008.9
20260510114015 67 217 4.0 8.0 0.00 0.00 0.00 95 1008.9
20260510113514 67 217 5.0 8.0 0.00 0.00 0.00 95 1008.9
20260510113014 67 205 6.0 8.0 0.00 0.00 0.00 95 1008.9
20260510112513 67 217 5.0 9.0 0.00 0.00 0.00 95 1009.0
20260510112017 67 205 4.0 9.0 0.00 0.00 0.00 95 1009.0
20260510111513 67 214 5.0 9.0 0.00 0.00 0.00 95 1008.9
20260510111012 67 190 5.0 9.0 0.00 0.00 0.00 95 1009.0
20260510110512 67 190 5.0 9.0 0.00 0.00 0.00 95 1008.9
20260510110013 67 211 5.0 9.0 0.00 0.00 0.00 95 1008.8
20260510105511 67 206 5.0 9.0 0.00 0.00 0.00 95 1008.9
20260510105010 67 222 4.0 9.0 0.00 0.00 0.00 95 1008.9
20260510104511 67 203 5.0 9.0 0.00 0.00 0.00 95 1008.9
20260510104010 67 193 5.0 8.0 0.00 0.00 0.00 94 1008.9
20260510103512 67 215 4.0 7.0 0.00 0.00 0.00 94 1008.8
20260510103010 67 215 4.0 7.0 0.00 0.00 0.00 94 1008.8
20260510102510 68 207 4.0 9.0 0.00 0.00 0.00 94 1008.9
20260510102009 67 218 4.0 9.0 0.00 0.00 0.00 95 1008.8
20260510101509 67 197 5.0 9.0 0.00 0.00 0.00 95 1008.9
20260510101008 67 205 4.0 9.0 0.00 0.00 0.00 95 1008.8
20260510100508 67 199 5.0 9.0 0.00 0.00 0.00 94 1008.9
20260510100007 67 200 5.0 9.0 0.00 0.00 0.00 94 1008.8
20260510095509 67 189 5.0 8.0 0.00 0.00 0.00 94 1008.8
20260510095009 67 192 3.0 8.0 0.00 0.00 0.00 94 1008.8
20260510094518 67 204 4.0 8.0 0.00 0.00 0.00 94 1008.8
20260510094006 67 184 4.0 8.0 0.00 0.00 0.00 94 1008.8
20260510093506 67 173 4.0 7.0 0.00 0.00 0.00 94 1008.8
20260510093009 67 195 3.0 8.0 0.00 0.00 0.00 93 1008.7
20260510092505 67 191 4.0 7.0 0.00 0.00 0.00 93 1008.7
20260510092006 67 191 4.0 7.0 0.00 0.00 0.00 93 1008.8
20260510091507 68 186 3.0 6.0 0.00 0.00 0.00 93 1008.8
20260510091004 68 195 3.0 6.0 0.00 0.00 0.00 92 1008.8
20260510090503 68 195 3.0 6.0 0.00 0.00 0.00 92 1008.8
20260510090004 68 188 3.0 7.0 0.00 0.00 0.00 92 1008.8
20260510085502 68 191 3.0 7.0 0.00 0.00 0.00 92 1008.7
20260510085004 68 209 4.0 7.0 0.00 0.00 0.00 92 1008.7
20260510084504 68 215 4.0 7.0 0.00 0.00 0.00 91 1008.6
20260510084001 68 190 5.0 7.0 0.00 0.00 0.00 91 1008.7
20260510083501 68 171 4.0 7.0 0.00 0.00 0.00 91 1008.6
20260510083107 68 175 5.0 8.0 0.00 0.00 0.00 91 1008.7
20260510082600 68 195 5.0 8.0 0.00 0.00 0.00 90 1008.6
20260510082059 69 186 5.0 8.0 0.00 0.00 0.00 90 1008.7
20260510081558 69 209 5.0 9.0 0.00 0.00 0.00 90 1008.7
20260510081057 69 195 5.0 10.0 0.00 0.00 0.00 89 1008.7
20260510080556 69 188 5.0 10.0 0.00 0.00 0.00 89 1008.7
20260510075555 69 180 5.0 8.0 0.00 0.00 0.00 88 1008.7
20260510075057 69 181 4.0 8.0 0.00 0.00 0.00 88 1008.7
20260510074554 69 173 4.0 8.0 0.00 0.00 0.00 87 1008.6
20260510074052 70 198 5.0 9.0 0.00 0.00 0.00 87 1008.5
20260510073551 70 176 4.0 9.0 0.00 0.00 0.00 86 1008.6
20260510073056 70 199 4.0 11.0 0.00 0.00 0.00 86 1008.5
20260510072550 70 173 5.0 11.0 0.00 0.00 0.00 86 1008.6
20260510072049 70 188 7.0 11.0 0.00 0.00 0.00 86 1008.6
20260510071550 70 181 6.0 10.0 0.00 0.00 0.00 86 1008.7
20260510071048 70 200 7.0 10.0 0.00 0.00 0.00 85 1008.6
20260510070548 70 183 7.0 9.0 0.00 0.00 0.00 85 1008.7
20260510070047 71 184 5.0 10.0 0.00 0.00 0.00 84 1008.8
20260510065549 71 185 6.0 14.0 0.00 0.00 0.00 84 1008.9
20260510065044 71 201 6.0 14.0 0.00 0.00 0.00 84 1009.0
20260510064546 71 202 6.0 12.0 0.00 0.00 0.00 83 1009.0
20260510064042 71 197 6.0 11.0 0.00 0.00 0.00 82 1009.0
20260510063542 72 205 6.0 10.0 0.00 0.00 0.00 82 1009.0
20260510063041 72 207 5.0 13.0 0.00 0.00 0.00 82 1009.0
20260510062542 72 176 7.0 13.0 0.00 0.00 0.00 81 1008.9
20260510062038 72 194 6.0 11.0 0.00 0.00 0.00 81 1008.9
20260510061537 72 198 8.0 13.0 0.00 0.00 0.00 81 1009.1
20260510061036 72 195 8.0 13.0 0.00 0.00 0.00 81 1009.0
20260510060536 72 174 7.0 11.0 0.00 0.00 0.00 80 1009.0
20260510060041 73 195 6.0 10.0 0.00 0.00 0.00 80 1009.0
20260510055532 73 213 4.0 9.0 0.00 0.00 0.00 79 1009.0
20260510055032 73 195 4.0 8.0 0.00 0.00 0.00 79 1008.9
20260510054538 73 192 5.0 12.0 0.00 0.00 0.00 79 1008.9
20260510054033 73 180 6.0 12.0 0.00 0.00 0.00 79 1008.9
20260510053530 73 152 8.0 14.0 0.00 0.00 0.00 79 1008.9
20260510053030 73 171 8.0 14.0 0.00 0.00 0.00 79 1008.8
20260510052529 74 148 5.0 8.0 0.00 0.00 0.00 79 1008.8
20260510052029 74 138 4.0 9.0 0.00 0.00 0.00 78 1008.8
20260510051529 74 135 5.0 11.0 0.00 0.00 0.00 78 1008.8
20260510051028 74 166 7.0 11.0 0.00 0.00 0.00 79 1008.7
20260510050526 73 149 5.0 11.0 0.00 0.00 0.00 79 1008.7
20260510050031 73 164 7.0 11.0 0.00 0.00 0.00 79 1008.6
20260510045528 73 192 6.0 10.0 0.00 0.00 0.00 79 1008.6
20260510045026 73 159 6.0 11.0 0.00 0.00 0.00 80 1008.7
20260510044526 73 159 6.0 11.0 0.00 0.00 0.00 80 1008.7
20260510044025 73 164 5.0 9.0 0.00 0.00 0.00 81 1008.6
20260510043625 73 180 5.0 8.0 0.00 0.00 0.00 81 1008.7
20260510043027 73 180 4.0 6.0 0.00 0.00 0.00 80 1008.7
20260510042524 73 186 4.0 6.0 0.00 0.00 0.00 80 1008.6
20260510042024 73 186 4.0 7.0 0.00 0.00 0.00 80 1008.5
20260510041524 73 172 5.0 7.0 0.00 0.00 0.00 80 1008.5
20260510041024 73 177 4.0 7.0 0.00 0.00 0.00 79 1008.5
20260510040524 73 187 4.0 6.0 0.00 0.00 0.00 79 1008.4
20260510040026 73 185 4.0 6.0 0.00 0.00 0.00 79 1008.4
20260510035523 74 188 4.0 8.0 0.00 0.00 0.00 78 1008.4
20260510035023 74 173 5.0 8.0 0.00 0.00 0.00 78 1008.3
20260510034524 74 193 5.0 8.0 0.00 0.00 0.00 77 1008.3
20260510034022 74 192 4.0 6.0 0.00 0.00 0.00 77 1008.3
20260510033524 74 189 3.0 6.0 0.00 0.00 0.00 77 1008.2
20260510033022 74 196 4.0 6.0 0.00 0.00 0.00 76 1008.2
20260510032523 75 185 4.0 6.0 0.00 0.00 0.00 75 1008.2
20260510032024 75 200 4.0 7.0 0.00 0.00 0.00 74 1008.1
20260510031522 75 181 4.0 7.0 0.00 0.00 0.00 74 1008.1
20260510031021 76 181 4.0 7.0 0.00 0.00 0.00 73 1008.1
20260510030522 76 176 3.0 7.0 0.00 0.00 0.00 72 1008.0
20260510030024 76 192 3.0 7.0 0.00 0.00 0.00 72 1008.0
20260510025522 77 193 4.0 9.0 0.00 0.00 0.00 71 1008.0
20260510025022 77 169 5.0 9.0 0.00 0.00 0.00 71 1008.0
20260510024622 77 140 5.0 9.0 0.00 0.00 0.00 71 1007.9
20260510024020 77 172 6.0 9.0 0.00 0.00 0.00 70 1007.8
20260510023520 77 168 6.0 9.0 0.00 0.00 0.00 70 1007.7
20260510023020 77 176 5.0 8.0 0.00 0.00 0.00 69 1007.6
20260510022521 77 163 5.0 7.0 0.00 0.00 0.00 69 1007.6
20260510022020 77 176 4.0 7.0 0.00 0.00 0.00 68 1007.4
20260510021520 77 175 4.0 6.0 0.00 0.00 0.00 68 1007.5
20260510021019 77 182 4.0 6.0 0.00 0.00 0.00 68 1007.2
20260510020522 78 196 3.0 5.0 0.00 0.00 0.00 68 1007.1
20260510020019 78 198 3.0 6.0 0.00 0.00 0.00 68 1007.1
20260510015518 78 194 4.0 6.0 0.00 0.00 0.00 68 1007.1
20260510015018 78 190 3.0 6.0 0.00 0.00 0.00 67 1006.9
20260510014520 79 181 3.0 5.0 0.00 0.00 0.00 66 1007.0
20260510014018 79 194 3.0 5.0 0.00 0.00 0.00 66 1006.9
20260510013518 80 185 3.0 6.0 0.00 0.00 0.00 65 1006.7
20260510013017 80 184 4.0 7.0 0.00 0.00 0.00 65 1006.6
20260510012517 81 195 4.0 7.0 0.00 0.00 0.00 63 1006.6
20260510012017 81 191 4.0 7.0 0.00 0.00 0.00 63 1006.5
20260510011517 82 171 3.0 7.0 0.00 0.00 0.00 62 1006.6
20260510011016 82 181 4.0 7.0 0.00 0.00 0.00 61 1006.4
20260510010517 83 190 4.0 6.0 0.00 0.00 0.00 60 1006.4
20260510010017 83 184 3.0 6.0 0.00 0.00 0.00 59 1006.4
20260510005517 84 184 1.0 9.0 0.00 0.00 0.00 59 1006.3
20260510005016 84 187 4.0 8.0 0.00 0.00 0.00 58 1006.3
20260510004516 85 193 4.0 8.0 0.00 0.00 0.00 57 1006.2
20260510004015 85 198 5.0 9.0 0.00 0.00 0.00 56 1006.2
20260510003515 86 211 2.0 6.0 0.00 0.00 0.00 56 1006.3
20260510003023 86 192 3.0 5.0 0.00 0.00 0.00 54 1006.3
20260510002514 87 205 1.0 6.0 0.00 0.00 0.00 53 1006.2
20260510002015 87 210 3.0 6.0 0.00 0.00 0.00 53 1006.2
20260510001516 87 195 3.0 6.0 0.00 0.00 0.00 53 1006.2
20260510001014 88 206 4.0 6.0 0.00 0.00 0.00 52 1006.2
20260510000514 88 232 3.0 6.0 0.00 0.00 0.00 52 1006.1
20260510000014 88 182 2.0 7.0 0.00 0.00 0.00 53 1006.1
20260509235513 88 136 2.0 8.0 0.00 0.00 0.00 52 1006.1
20260509235013 88 165 4.0 9.0 0.00 0.00 0.00 51 1006.2
20260509234524 88 186 4.0 9.0 0.00 0.00 0.00 53 1006.1
20260509234013 88 148 3.0 7.0 0.00 0.00 0.00 52 1006.1
20260509233512 89 210 2.0 6.0 0.00 0.00 0.00 51 1006.1
20260509233012 89 199 2.0 5.0 0.00 0.00 0.00 52 1006.0
20260509232512 88 222 0.0 2.0 0.00 0.00 0.00 49 1006.0
20260509232014 88 325 0.0 5.0 0.00 0.00 0.00 50 1006.0
20260509231514 87 9 1.0 10.0 0.00 0.00 0.00 49 1006.1
20260509231012 87 9 2.0 10.0 0.00 0.00 0.00 50 1006.1
20260509230511 88 331 2.0 8.0 0.00 0.00 0.00 47 1006.2
20260509230011 89 265 4.0 9.0 0.00 0.00 0.00 49 1006.2
20260509225511 89 246 5.0 11.0 0.00 0.00 0.00 49 1006.1
20260509225010 89 248 3.0 10.0 0.00 0.00 0.00 50 1006.1
20260509224510 89 227 5.0 10.0 0.00 0.00 0.00 50 1006.1
20260509224009 89 296 4.0 8.0 0.00 0.00 0.00 50 1006.1
20260509223510 89 213 5.0 7.0 0.00 0.00 0.00 49 1006.1
20260509223009 89 175 5.0 10.0 0.00 0.00 0.00 51 1006.1
20260509222508 89 240 2.0 10.0 0.00 0.00 0.00 50 1006.1
20260509222008 89 209 7.0 10.0 0.00 0.00 0.00 51 1006.1
20260509221508 89 202 5.0 7.0 0.00 0.00 0.00 50 1006.1
20260509221007 89 163 2.0 10.0 0.00 0.00 0.00 53 1006.2
20260509220508 89 159 4.0 10.0 0.00 0.00 0.00 53 1006.3
20260509220018 89 232 4.0 8.0 0.00 0.00 0.00 54 1006.2
20260509215506 88 248 3.0 7.0 0.00 0.00 0.00 54 1006.3
20260509215005 88 157 2.0 8.0 0.00 0.00 0.00 53 1006.3
20260509214504 88 163 3.0 5.0 0.00 0.00 0.00 56 1006.4
20260509214004 87 175 2.0 12.0 0.00 0.00 0.00 56 1006.5
20260509213501 87 177 6.0 12.0 0.00 0.00 0.00 54 1006.5
20260509213141 88 121 5.0 12.0 0.00 0.00 0.00 54 1006.5
20260509212601 89 177 7.0 12.0 0.00 0.00 0.00 55 1006.7
20260509212101 88 175 8.0 12.0 0.00 0.00 0.00 55 1006.7
20260509211558 88 180 5.0 10.0 0.00 0.00 0.00 55 1006.8
20260509211057 88 227 4.0 8.0 0.00 0.00 0.00 54 1006.8
20260509210557 88 229 2.0 7.0 0.00 0.00 0.00 55 1006.9
20260509210105 87 207 3.0 9.0 0.00 0.00 0.00 56 1007.1
20260509205556 87 213 5.0 9.0 0.00 0.00 0.00 56 1007.1
20260509205053 87 165 4.0 8.0 0.00 0.00 0.00 58 1007.2
20260509204555 86 198 5.0 9.0 0.00 0.00 0.00 58 1007.3
20260509204052 85 210 6.0 9.0 0.00 0.00 0.00 59 1007.4
20260509203551 86 244 0.0 9.0 0.00 0.00 0.00 56 1007.5
20260509203050 87 265 4.0 6.0 0.00 0.00 0.00 56 1007.5
20260509202549 87 222 1.0 11.0 0.00 0.00 0.00 55 1007.7
20260509202049 86 225 8.0 11.0 0.00 0.00 0.00 58 1007.7
20260509201548 86 200 2.0 8.0 0.00 0.00 0.00 58 1007.7
20260509201047 85 209 4.0 8.0 0.00 0.00 0.00 59 1007.9
20260509200546 85 127 1.0 11.0 0.00 0.00 0.00 59 1007.9
20260509200046 84 225 7.0 11.0 0.00 0.00 0.00 61 1008.1
20260509195546 84 231 5.0 15.0 0.00 0.00 0.00 61 1008.1
20260509195048 85 229 10.0 15.0 0.00 0.00 0.00 59 1008.1
20260509194544 86 249 4.0 14.0 0.00 0.00 0.00 58 1008.3
20260509194044 86 242 6.0 14.0 0.00 0.00 0.00 60 1008.3
20260509193543 85 142 6.0 12.0 0.00 0.00 0.00 59 1008.3
20260509193044 85 204 5.0 14.0 0.00 0.00 0.00 60 1008.4
20260509192544 84 173 8.0 14.0 0.00 0.00 0.00 62 1008.4
20260509192040 84 300 4.0 12.0 0.00 0.00 0.00 62 1008.4
20260509191542 83 239 8.0 12.0 0.00 0.00 0.00 64 1008.5
20260509191043 83 173 4.0 11.0 0.00 0.00 0.00 63 1008.5
20260509190539 84 235 5.0 11.0 0.00 0.00 0.00 64 1008.6
20260509190040 84 245 8.0 13.0 0.00 0.00 0.00 65 1008.7
20260509185537 83 246 9.0 13.0 0.00 0.00 0.00 67 1008.8
20260509185037 83 200 1.0 12.0 0.00 0.00 0.00 67 1008.8
20260509184549 83 227 6.0 13.0 0.00 0.00 0.00 66 1008.9
20260509184036 83 215 5.0 16.0 0.00 0.00 0.00 67 1009.0
20260509183536 83 221 8.0 16.0 0.00 0.00 0.00 68 1009.1
20260509183035 83 189 5.0 10.0 0.00 0.00 0.00 69 1009.1
20260509182535 83 200 3.0 11.0 0.00 0.00 0.00 70 1009.2
20260509182034 83 211 7.0 11.0 0.00 0.00 0.00 69 1009.3
20260509181544 83 231 7.0 13.0 0.00 0.00 0.00 69 1009.4
20260509181033 83 221 11.0 14.0 0.00 0.00 0.00 69 1009.5
20260509180533 83 184 5.0 11.0 0.00 0.00 0.00 68 1009.5
20260509180032 82 172 5.0 11.0 0.00 0.00 0.00 73 1009.6
20260509175534 82 223 6.0 13.0 0.00 0.00 0.00 71 1009.7
20260509175029 82 148 2.0 14.0 0.00 0.00 0.00 71 1009.7
20260509174528 81 201 6.0 12.0 0.00 0.00 0.00 74 1009.7
20260509174026 81 191 6.0 12.0 0.00 0.00 0.00 75 1009.8
20260509173525 80 214 3.0 11.0 0.00 0.00 0.00 76 1009.8
20260509173023 79 182 4.0 11.0 0.00 0.00 0.00 77 1009.8
20260509172523 79 213 7.0 12.0 0.00 0.00 0.00 78 1009.9
20260509172023 79 236 9.0 14.0 0.00 0.00 0.00 77 1009.9
20260509171521 79 265 6.0 14.0 0.00 0.00 0.00 79 1009.9
20260509171020 78 211 6.0 14.0 0.00 0.00 0.00 79 1010.0
20260509170519 78 222 5.0 11.0 0.00 0.00 0.00 81 1009.9
20260509170019 78 229 5.0 15.0 0.00 0.00 0.00 83 1009.9
20260509165519 78 229 9.0 15.0 0.00 0.00 0.00 81 1009.8
20260509165020 78 182 8.0 17.0 0.00 0.00 0.00 82 1009.8
20260509164529 78 226 8.0 16.0 0.00 0.00 0.00 83 1009.8
20260509164018 77 184 9.0 15.0 0.00 0.00 0.00 84 1009.7